Terminal Aerodrome Forecast
Issued by NWS Greer, SC

Home | Current Version | Previous Version | Text Only | Print | Product List | Glossary On
Versions: 1 2 3 4 5 6 7 8 9 10 11 12 13 14 15 16 17 18 19 20 21 22 23 24 25 26 27 28 29 30 31 32 33 34 35 36 37 38 39 40 41 42 43 44
000
FTUS42 KGSP 030909 AAA
TAFCLT
TAF AMD
KCLT 030909Z 0309/0406 00000KT P6SM FEW100
     FM031300 17005KT P6SM SCT070
     FM031900 20006KT P6SM BKN070
     FM040100 18004KT P6SM FEW070 BKN250=

USA.gov is the U.S. government's official web portal to all federal, state and local government web resources and services.